Regional Weather Roundup
Issued by NWS Midland/Odessa, TX

Skip options and go directly to product.
Home | Oldest Version | Previous Version | Current Version | All | Text Only | Save Text | Print | Product List | Glossary On

Skip product version selection by date and time.   
277
ASUS44 KMAF 200610
RWRMAF
MIDLAND AREA WEATHER ROUNDUP
NATIONAL WEATHER SERVICE MIDLAND TX
100 AM CDT SUN APR 20 2014

...IN SOUTHWEST TEXAS AND SOUTHEAST NEW MEXICO...

CITY           SKY/WX    TMP DP  RH WIND       PRES   REMARKS
ALPINE         CLOUDY    56  56  97 NE7       30.18F
ANDREWS        FAIR      58  56  96 S7        30.09S
ARTESIA        CLEAR     50  50 100 S9        30.08F
BIG SPRING     FAIR      61  58  90 E9        30.10F
CARLSBAD       PTCLDY    57  54  89 S7        30.10F
DRYDEN           N/A     70  57  63 SE16G23   30.05R
FORT STOCKTON  LGT RAIN  59  57  93 E13       30.08F
GUAD PASS      FOG       51  51 100 NE24      30.17F VSB 1/4
HOBBS          FAIR      54  54 100 S7        30.12S
MARFA          CLOUDY    55  54  94 N9        30.14F
MIDLAND AIRPK  FAIR      62  58  87 SE7       30.09F
MIDLAND INTL   FAIR      61  58  90 SE10      30.08F
ODESSA         FAIR      61  58  90 E8        30.08F
PECOS          DRIZZLE   59  57  92 NW3       30.09F
PRESIDIO       FAIR      66  53  63 NW12      30.03R
SEMINOLE       FAIR      56  54  92 S6        30.09F
SNYDER         LGT RAIN  62  58  87 S3        30.11F
WINK           FAIR      60  59  96 SW5       30.10R
$$
...OTHER STATIONS IN TEXAS...

CITY           SKY/WX    TMP DP  RH WIND       PRES   REMARKS
ABILENE        FAIR      66  50  56 SE13      30.10F
AMARILLO       FAIR      53  46  77 SE6       30.06F
AUSTIN         FAIR      62  57  83 S8        30.12S
BROWNSVILLE    FAIR      70  66  87 SE10      30.07F
CORPUS CHRISTI CLOUDY    70  64  81 SE9       30.11S
DALLAS FTW     MOCLDY    63  53  70 S5        30.12R
DEL RIO        CLOUDY    75  57  53 SE15      30.02R
EL PASO        MOCLDY    56  50  80 SE6       30.10S
HOUSTON INT    FAIR      64  61  90 CALM      30.15S
LUBBOCK        CLOUDY    59  54  83 S12       30.04F
SAN ANGELO     FAIR      63  59  87 NE3       30.07F
SAN ANTONIO    CLOUDY    67  58  72 SE12      30.12F
WACO           FAIR      60  55  83 CALM      30.12R
WICHITA FALLS  NOT AVBL
$$
...OTHER LOCATIONS IN NEW MEXICO...

CITY           SKY/WX    TMP DP  RH WIND       PRES   REMARKS
ALAMAGORDO     PTCLDY    48  48 100 S3        30.13R
ALBUQUERQUE    LGT RAIN  52  45  77 SW5       30.14R
CANNON AFB     PTCLDY    51  49  93 SW6       30.08F
CLOVIS         CLEAR     52  46  82 S7        30.11F
HOLLOMAN AFB   PTCLDY    50  50  99 SW3       30.12R
ROSWELL        CLEAR     53  47  79 S12       30.06F
RUIDOSO        MOCLDY    43  39  87 W7        30.19R WCI  39
SANTA FE       CLOUDY    48  44  86 E5        30.13F
TRUTH OR CONSE CLOUDY    52  48  86 W6        30.12S
TUCUMCARI      CLOUDY    55  50  83 W7        30.04F
$$

USA.gov is the U.S. government's official web portal to all federal, state and local government web resources and services.